Spokane Fairchild, WA
on Thursday, February 28, 2013

Thursday
Previous Day Next Day
Daily Summary
 ActualAverage (KGEG)Record (KGEG)
Temperature
Mean Temperature °F 36°F  
Max Temperature 39°F 44°F 60°F (1988)
Min Temperature 31°F 28°F -10°F (1890)
Degree Days
Heating Degree Days 30 29  
Month to date heating degree days 895  
Since 1 July heating degree days 4829  
Cooling Degree Days 0 0  
Month to date cooling degree days 0  
Year to date cooling degree days 0  
Moisture
Dew Point 36°F   
Average Humidity 96    
Maximum Humidity 100    
Minimum Humidity 83    
Precipitation
Precipitation 0.14 in 0.05 in 0.70 in (1940)
Month to date precipitation 1.33  
Year to date precipitation 3.12  
Snow
Snow 0.00 in 0.20 in 3.30 in (1955)
Month to date snowfall 6.8  
Since 1 July snowfall 40.3  
Snow Depth in   
Wind
Wind Speed 5 mph   
Max Wind Speed 10 mph   
Max Gust Speed mph   
Visibility 7 miles   
Events Fog , Rain   

Key: T is trace of precipitation, MM is missing value
Source: NWS Daily Summary
Time(PST)TemperatureDew PointHumidity Pressure Visibility Wind DirectionWind SpeedGust SpeedPrecipitationEvents Conditions
12:58 AM 34.0°F 29.3°F 83% 30.28 in 10.0 miles NE 3.5 mph - N/A   Overcast
1:24 AM 32.0°F 30.2°F 93% 30.21 in 10.0 miles East 3.5 mph - N/A   Overcast
1:32 AM 32.0°F 30.2°F 93% 30.21 in 10.0 miles East 4.6 mph - N/A   Overcast
1:45 AM 32.0°F 30.2°F 93% 30.21 in 10.0 miles East 2.3 mph - N/A   Mostly Cloudy
1:54 AM 32.0°F 30.2°F 93% 30.21 in 10.0 miles ESE 1.2 mph - N/A   Mostly Cloudy
1:58 AM 31.6°F 29.8°F 93% 30.27 in 10.0 miles SE 2.3 mph - 0.00 in   Mostly Cloudy
2:58 AM 33.6°F 30.2°F 87% 30.27 in 10.0 miles Calm Calm - N/A   Partly Cloudy
3:58 AM 34.9°F 30.6°F 84% 30.28 in 10.0 miles West 1.2 mph - N/A   Overcast
4:11 AM 35.6°F 32.0°F 87% 30.23 in 10.0 miles SSW 1.2 mph - N/A   Overcast
4:18 AM 35.6°F 32.0°F 87% 30.23 in 10.0 miles NW 2.3 mph - N/A   Overcast
4:19 AM 35.6°F 32.0°F 87% 30.23 in 10.0 miles NW 2.3 mph - N/A Rain Light Rain
4:40 AM 35.6°F 32.0°F 87% 30.23 in 10.0 miles Calm Calm - N/A Rain Light Rain
4:50 AM 35.6°F 32.0°F 87% 30.23 in 10.0 miles NE 4.6 mph - N/A Rain Light Rain
4:54 AM 35.6°F 32.0°F 87% 30.23 in 10.0 miles NE 4.6 mph - N/A Rain Light Rain
4:58 AM 34.9°F 31.6°F 88% 30.29 in 10.0 miles ENE 2.3 mph - 0.00 in Rain Light Rain
4:59 AM 35.6°F 32.0°F 87% 30.23 in 10.0 miles ENE 4.6 mph - N/A Rain Light Rain
5:03 AM 35.6°F 32.0°F 87% 30.23 in 10.0 miles NE 4.6 mph - N/A Rain Light Rain
5:04 AM 35.6°F 32.0°F 87% 30.23 in 10.0 miles NNE 3.5 mph - N/A Rain Light Rain
5:05 AM 35.6°F 32.0°F 87% 30.23 in 10.0 miles NNE 2.3 mph - N/A Rain Light Rain
5:08 AM 35.6°F 32.0°F 87% 30.23 in 10.0 miles NE 1.2 mph - N/A Rain Light Rain
5:09 AM 35.6°F 32.0°F 87% 30.23 in 10.0 miles NE 1.2 mph - N/A Rain Light Rain
5:15 AM 35.6°F 32.0°F 87% 30.23 in 10.0 miles East 2.3 mph - N/A Rain Light Rain
5:22 AM 35.6°F 32.0°F 87% 30.23 in 10.0 miles East 2.3 mph - N/A Rain Light Rain
5:28 AM 33.8°F 32.0°F 93% 30.24 in 9.0 miles East 2.3 mph - N/A Rain Light Rain
5:33 AM 33.8°F 32.0°F 93% 30.24 in 8.0 miles ENE 2.3 mph - N/A Rain Light Rain
5:58 AM 34.2°F 33.1°F 96% 30.32 in 10.0 miles ESE 4.6 mph - 0.03 in Rain Light Rain
6:14 AM 33.8°F 33.8°F 100% 30.24 in 10.0 miles Variable 1.2 mph - N/A Rain Light Rain
6:17 AM 33.8°F 33.8°F 100% 30.25 in 10.0 miles North 1.2 mph - N/A Rain Light Rain
6:46 AM 33.8°F 33.8°F 100% 30.25 in 10.0 miles SE 3.5 mph - N/A   Light Drizzle
6:58 AM 34.5°F 34.3°F 99% 30.32 in 10.0 miles ESE 4.6 mph - 0.00 in Rain Light Rain
7:04 AM 33.8°F 33.8°F 100% 30.26 in 10.0 miles ESE 4.6 mph - N/A Rain Light Rain
7:58 AM 35.4°F 35.2°F 99% 30.34 in 10.0 miles SE 6.9 mph - 0.00 in Rain Light Rain
8:01 AM 35.6°F 35.6°F 100% 30.27 in 9.0 miles SE 8.1 mph - N/A Rain Light Rain
8:16 AM 35.6°F 35.6°F 100% 30.27 in 6.0 miles SE 8.1 mph - N/A Rain Light Rain
8:32 AM 35.6°F 35.6°F 100% 30.27 in 7.0 miles SE 8.1 mph - N/A   Overcast
8:41 AM 35.6°F 35.6°F 100% 30.28 in 10.0 miles SE 6.9 mph - N/A   Overcast
8:58 AM 36.3°F 36.1°F 99% 30.34 in 8.0 miles SE 8.1 mph - 0.01 in   Overcast
9:09 AM 35.6°F 35.6°F 100% 30.27 in 10.0 miles SE 8.1 mph - N/A   Overcast
9:29 AM 37.4°F 35.6°F 93% 30.28 in 10.0 miles SE 9.2 mph - N/A   Overcast
9:32 AM 37.4°F 35.6°F 93% 30.28 in 10.0 miles SE 9.2 mph - N/A   Overcast
9:43 AM 37.4°F 35.6°F 93% 30.29 in 10.0 miles SE 9.2 mph - N/A   Overcast
9:58 AM 37.0°F 36.3°F 97% 30.36 in 10.0 miles SE 9.2 mph - 0.00 in   Overcast
10:18 AM 37.4°F 35.6°F 93% 30.29 in 10.0 miles SE 9.2 mph - N/A   Overcast
10:30 AM 37.4°F 35.6°F 93% 30.30 in 10.0 miles ESE 8.1 mph - N/A   Light Drizzle
10:39 AM 37.4°F 37.4°F 100% 30.29 in 10.0 miles SE 8.1 mph - N/A   Overcast
10:43 AM 37.4°F 37.4°F 100% 30.29 in 10.0 miles ESE 9.2 mph - N/A   Light Drizzle
10:58 AM 37.2°F 37.0°F 99% 30.35 in 10.0 miles SE 10.4 mph - 0.00 in Rain Light Rain
11:28 AM 39.2°F 37.4°F 93% 30.28 in 10.0 miles SE 8.1 mph - N/A   Overcast
11:41 AM 39.2°F 37.4°F 93% 30.28 in 10.0 miles SE 9.2 mph - N/A Rain Light Rain
11:47 AM 39.2°F 37.4°F 93% 30.28 in 10.0 miles ESE 8.1 mph - N/A Rain Light Rain
11:58 AM 38.7°F 37.4°F 95% 30.35 in 10.0 miles ESE 9.2 mph - 0.00 in Rain Light Rain
12:09 PM 39.2°F 37.4°F 93% 30.28 in 10.0 miles SE 9.2 mph - N/A   Overcast
12:19 PM 39.2°F 37.4°F 93% 30.27 in 10.0 miles ESE 9.2 mph - N/A Rain Light Rain
12:21 PM 39.2°F 37.4°F 93% 30.27 in 10.0 miles SE 9.2 mph - N/A Rain Light Rain
12:37 PM 39.2°F 37.4°F 93% 30.27 in 10.0 miles SE 8.1 mph - N/A Rain Light Rain
12:43 PM 39.2°F 37.4°F 93% 30.27 in 10.0 miles ESE 8.1 mph - N/A Rain Light Rain
12:49 PM 39.2°F 37.4°F 93% 30.27 in 10.0 miles ESE 9.2 mph - N/A Rain Light Rain
12:56 PM 39.2°F 37.4°F 93% 30.27 in 8.0 miles ESE 8.1 mph - N/A Rain Light Rain
12:58 PM 39.0°F 37.6°F 95% 30.34 in 8.0 miles SE 9.2 mph - 0.00 in Rain Light Rain
1:03 PM 39.2°F 37.4°F 93% 30.27 in 6.0 miles ESE 9.2 mph - N/A Rain Light Rain
1:08 PM 39.2°F 37.4°F 93% 30.27 in 10.0 miles East 8.1 mph - N/A Rain Light Rain
1:22 PM 39.2°F 39.2°F 100% 30.27 in 10.0 miles East 8.1 mph - N/A Rain Light Rain
1:23 PM 39.2°F 39.2°F 100% 30.27 in 10.0 miles East 8.1 mph - N/A Rain Light Rain
1:25 PM 39.2°F 39.2°F 100% 30.27 in 10.0 miles East 6.9 mph - N/A Rain Light Rain
1:27 PM 39.2°F 39.2°F 100% 30.27 in 10.0 miles East 6.9 mph - N/A Rain Light Rain
1:58 PM 39.7°F 38.5°F 95% 30.34 in 10.0 miles ESE 8.1 mph - 0.03 in Rain Light Rain
2:32 PM 39.2°F 37.4°F 93% 30.27 in 10.0 miles ESE 9.2 mph - N/A Rain Light Rain
2:42 PM 39.2°F 37.4°F 93% 30.28 in 10.0 miles SE 9.2 mph - N/A Rain Light Rain
2:46 PM 39.2°F 37.4°F 93% 30.28 in 10.0 miles SE 10.4 mph - N/A Rain Light Rain
2:53 PM 39.2°F 37.4°F 93% 30.28 in 10.0 miles ESE 9.2 mph - N/A Rain Light Rain
2:58 PM 39.4°F 37.8°F 94% 30.35 in 10.0 miles ESE 8.1 mph - 0.03 in Rain Light Rain
3:19 PM 39.2°F 37.4°F 93% 30.27 in 10.0 miles ESE 5.8 mph - N/A Rain Light Rain
3:35 PM 39.2°F 37.4°F 93% 30.27 in 10.0 miles ESE 6.9 mph - N/A Rain Light Rain
3:46 PM 39.2°F 37.4°F 93% 30.28 in 10.0 miles SE 8.1 mph - N/A Rain Light Rain
3:52 PM 39.2°F 37.4°F 93% 30.27 in 10.0 miles SE 6.9 mph - N/A Rain Light Rain
3:58 PM 39.0°F 38.1°F 97% 30.35 in 10.0 miles SE 6.9 mph - 0.02 in Rain Light Rain
4:06 PM 39.2°F 37.4°F 93% 30.27 in 10.0 miles ESE 8.1 mph - N/A Rain Light Rain
4:13 PM 39.2°F 37.4°F 93% 30.28 in 10.0 miles ESE 5.8 mph - N/A Rain Light Rain
4:20 PM 39.2°F 37.4°F 93% 30.28 in 10.0 miles ESE 6.9 mph - N/A Rain Light Rain
4:21 PM 39.2°F 37.4°F 93% 30.28 in 10.0 miles ESE 6.9 mph - N/A Rain Light Rain
4:29 PM 39.2°F 37.4°F 93% 30.29 in 10.0 miles SE 6.9 mph - N/A Rain Light Rain
4:32 PM 39.2°F 37.4°F 93% 30.29 in 10.0 miles SE 5.8 mph - N/A Rain Light Rain
4:52 PM 39.2°F 37.4°F 93% 30.29 in 10.0 miles ESE 5.8 mph - N/A Rain Light Rain
4:58 PM 38.5°F 37.9°F 98% 30.35 in 10.0 miles East 5.8 mph - 0.02 in Rain Light Rain
4:59 PM 39.2°F 37.4°F 93% 30.29 in 10.0 miles East 4.6 mph - N/A Rain Light Rain
5:00 PM 39.2°F 37.4°F 93% 30.29 in 10.0 miles East 4.6 mph - N/A Rain Light Rain
5:07 PM 39.2°F 37.4°F 93% 30.29 in 10.0 miles East 6.9 mph - N/A Rain Light Rain
5:13 PM 39.2°F 37.4°F 93% 30.29 in 10.0 miles East 6.9 mph - N/A Rain Light Rain
5:19 PM 37.4°F 37.4°F 100% 30.29 in 10.0 miles East 5.8 mph - N/A   Overcast
5:21 PM 37.4°F 37.4°F 100% 30.29 in 10.0 miles ESE 6.9 mph - N/A   Light Drizzle
5:27 PM 37.4°F 37.4°F 100% 30.29 in 10.0 miles East 5.8 mph - N/A   Light Drizzle
5:30 PM 37.4°F 37.4°F 100% 30.29 in 10.0 miles East 5.8 mph - N/A   Overcast
5:58 PM 37.9°F 37.6°F 99% 30.36 in 10.0 miles ESE 5.8 mph - 0.00 in   Overcast
6:32 PM 37.4°F 37.4°F 100% 30.29 in 10.0 miles SE 8.1 mph - N/A   Overcast
6:50 PM 37.4°F 37.4°F 100% 30.30 in 9.0 miles SE 6.9 mph - N/A   Overcast
6:58 PM 37.4°F 37.2°F 99% 30.36 in 8.0 miles SE 6.9 mph - 0.00 in   Overcast
6:59 PM 37.4°F 37.4°F 100% 30.29 in 8.0 miles ESE 6.9 mph - N/A   Overcast
7:35 PM 37.4°F 37.4°F 100% 30.29 in 8.0 miles ESE 5.8 mph - N/A   Overcast
7:48 PM 37.4°F 37.4°F 100% 30.30 in 9.0 miles ESE 4.6 mph - N/A   Overcast
7:58 PM 37.4°F 37.2°F 99% 30.36 in 8.0 miles ESE 3.5 mph - 0.00 in   Overcast
8:07 PM 37.4°F 37.4°F 100% 30.29 in 10.0 miles ESE 5.8 mph - N/A   Overcast
8:58 PM 37.8°F 37.6°F 99% 30.38 in 5.0 miles ESE 3.5 mph - N/A   Overcast
8:59 PM 37.4°F 37.4°F 100% 30.31 in 4.0 miles ESE 4.6 mph - N/A   Overcast
9:01 PM 37.4°F 37.4°F 100% 30.31 in 2.5 miles East 5.8 mph - N/A   Overcast
9:02 PM 37.4°F 37.4°F 100% 30.31 in 2.0 miles East 4.6 mph - N/A   Overcast
9:04 PM 37.4°F 37.4°F 100% 30.31 in 1.8 miles ESE 4.6 mph - N/A   Overcast
9:05 PM 37.4°F 37.4°F 100% 30.31 in 1.5 miles East 4.6 mph - N/A   Overcast
9:08 PM 37.4°F 37.4°F 100% 30.31 in 1.2 miles ENE 3.5 mph - N/A   Overcast
9:12 PM 37.4°F 37.4°F 100% 30.31 in 1.5 miles ENE 4.6 mph - N/A   Overcast
9:15 PM 37.4°F 37.4°F 100% 30.31 in 1.5 miles East 4.6 mph - N/A   Overcast
9:25 PM 37.4°F 37.4°F 100% 30.31 in 1.2 miles East 4.6 mph - N/A   Overcast
9:30 PM 37.4°F 37.4°F 100% 30.31 in 1.2 miles ESE 4.6 mph - N/A   Overcast
9:32 PM 37.4°F 37.4°F 100% 30.31 in 1.0 miles ESE 4.6 mph - N/A   Mist
9:37 PM 37.4°F 37.4°F 100% 30.31 in 1.0 miles ESE 3.5 mph - N/A   Mist
9:43 PM 37.4°F 37.4°F 100% 30.32 in 1.2 miles ESE 3.5 mph - N/A   Overcast
9:53 PM 37.4°F 37.4°F 100% 30.31 in 1.0 miles ESE 4.6 mph - N/A   Mist
9:55 PM 37.4°F 37.4°F 100% 30.30 in 1.0 miles ESE 5.8 mph - N/A   Mist
9:58 PM 37.4°F 37.4°F 100% 30.36 in 1.0 miles ESE 5.8 mph - 0.00 in   Mist
10:03 PM 37.4°F 37.4°F 100% 30.30 in 1.2 miles SE 3.5 mph - N/A   Overcast
10:05 PM 37.4°F 37.4°F 100% 30.30 in 1.2 miles ESE 3.5 mph - N/A   Overcast
10:06 PM 37.4°F 37.4°F 100% 30.30 in 1.2 miles ESE 3.5 mph - N/A   Overcast
10:08 PM 37.4°F 37.4°F 100% 30.30 in 1.5 miles ESE 4.6 mph - N/A   Overcast
10:10 PM 37.4°F 37.4°F 100% 30.30 in 1.8 miles ESE 4.6 mph - N/A   Overcast
10:12 PM 37.4°F 37.4°F 100% 30.30 in 2.0 miles ESE 3.5 mph - N/A   Overcast
10:13 PM 37.4°F 37.4°F 100% 30.30 in 2.5 miles East 2.3 mph - N/A   Overcast
10:14 PM 37.4°F 37.4°F 100% 30.30 in 3.0 miles East 2.3 mph - N/A   Overcast
10:20 PM 37.4°F 37.4°F 100% 30.31 in 2.5 miles Calm Calm - N/A   Overcast
10:31 PM 37.4°F 37.4°F 100% 30.31 in 3.0 miles SE 4.6 mph - N/A   Light Drizzle
10:32 PM 37.4°F 37.4°F 100% 30.30 in 4.0 miles SSE 4.6 mph - N/A   Overcast
10:45 PM 39.2°F 37.4°F 93% 30.30 in 2.5 miles SSE 5.8 mph - N/A   Overcast
10:47 PM 39.2°F 37.4°F 93% 30.31 in 1.8 miles SSE 5.8 mph - N/A   Overcast
10:48 PM 39.2°F 37.4°F 93% 30.31 in 1.5 miles SSE 5.8 mph - N/A   Overcast
10:49 PM 39.2°F 39.2°F 100% 30.31 in 1.2 miles SSE 5.8 mph - N/A   Overcast
10:50 PM 39.2°F 39.2°F 100% 30.30 in 1.2 miles SE 5.8 mph - N/A   Overcast
10:51 PM 39.2°F 39.2°F 100% 30.30 in 1.0 miles SE 5.8 mph - N/A   Mist
10:53 PM 39.2°F 39.2°F 100% 30.30 in 1.0 miles SE 5.8 mph - N/A   Mist
10:54 PM 39.2°F 39.2°F 100% 30.30 in 0.8 miles SE 5.8 mph - N/A   Mist
10:58 PM 39.2°F 39.2°F 100% 30.36 in 0.8 miles SE 5.8 mph - 0.00 in   Mist
11:01 PM 39.2°F 39.2°F 100% 30.31 in 0.5 miles SE 5.8 mph - N/A Fog Fog
11:04 PM 39.2°F 39.2°F 100% 30.31 in 0.5 miles SE 5.8 mph - N/A Fog Fog
11:05 PM 39.2°F 39.2°F 100% 30.31 in 0.5 miles SE 5.8 mph - N/A Fog Light Drizzle
11:07 PM 39.2°F 39.2°F 100% 30.30 in 0.5 miles SE 5.8 mph - N/A Fog Light Drizzle
11:08 PM 39.2°F 39.2°F 100% 30.30 in 0.5 miles SE 5.8 mph - N/A Fog Light Drizzle
11:09 PM 39.2°F 39.2°F 100% 30.30 in 0.2 miles SE 6.9 mph - N/A Fog Light Drizzle
11:10 PM 39.2°F 39.2°F 100% 30.30 in 0.2 miles SE 6.9 mph - N/A Fog Light Drizzle
11:22 PM 39.2°F 39.2°F 100% 30.30 in 0.5 miles SE 5.8 mph - N/A Fog Light Drizzle
11:27 PM 39.2°F 39.2°F 100% 30.30 in 0.2 miles SE 6.9 mph - N/A Fog Light Drizzle
11:43 PM 39.2°F 39.2°F 100% 30.31 in 0.2 miles SSE 4.6 mph - N/A Fog Fog
11:58 PM 39.0°F 38.8°F 99% 30.37 in 0.2 miles SSE 5.8 mph - 0.00 in Fog Fog
Moon Phase
Feb. 28 Mar. 04 Mar. 11 Mar. 19 Mar. 27
Sunrise:06:32 AM (PST) Moon Rise:09:26 PM (PST)2/28
Sunset:05:34 PM (PST) Moon Set:07:28 AM (PST)2/28

Copyright © 2014 The Weather Underground, Inc.